Total_Precipitation_Accumulation
0.21 0.24 0.30 0.30 0.25 0.22 0.19 0.16 0.13 0.10 0.09 0.07 0.06 0.04 0.03 0.03 0.02 0.01 0.00 0.00 0.00 0.00 0.00 0.00 0.00 0.00 0.00 0.00 0.00 0.00 0.00 0.00 0.00 0.00 0.00 0.00 0.00 0.00 0.00 0.00 0.00 0.00 0.00 0.00 0.00 0.00 0.00
0.39 0.29 0.31 0.41 0.47 0.41 0.36 0.34 0.28 0.22 0.16 0.10 0.07 0.06 0.06 0.04 0.03 0.01 0.01 0.00 0.00 0.00 0.00 0.00 0.00 0.00 0.00 0.00 0.00 0.00 0.00 0.00 0.00 0.00 0.00 0.00 0.00 0.00 0.00 0.00 0.00 0.00 0.00 0.00 0.00 0.00 0.00
0.48 0.45 0.35 0.29 0.31 0.38 0.42 0.39 0.37 0.37 0.32 0.28 0.21 0.16 0.12 0.11 0.08 0.04 0.02 0.00 0.00 0.00 0.00 0.00 0.00 0.00 0.00 0.00 0.00 0.00 0.00 0.00 0.00 0.00 0.00 0.00 0.00 0.00 0.00 0.00 0.00 0.00 0.00 0.00 0.00 0.00 0.00
0.48 0.48 0.51 0.48 0.38 0.36 0.42 0.50 0.45 0.36 0.35 0.28 0.27 0.22 0.23 0.19 0.17 0.15 0.09 0.03 0.00 0.00 0.00 0.00 0.00 0.00 0.00 0.00 0.00 0.00 0.00 0.00 0.00 0.00 0.00 0.00 0.00 0.00 0.00 0.00 0.00 0.00 0.00 0.00 0.00 0.00 0.00
0.47 0.47 0.50 0.54 0.59 0.53 0.49 0.50 0.58 0.55 0.44 0.42 0.38 0.36 0.25 0.25 0.21 0.19 0.18 0.13 0.06 0.00 0.00 0.00 0.00 0.00 0.00 0.00 0.00 0.00 0.00 0.00 0.00 0.00 0.00 0.00 0.00 0.00 0.00 0.00 0.00 0.00 0.00 0.00 0.00 0.00 0.00
0.47 0.40 0.38 0.38 0.36 0.39 0.44 0.49 0.53 0.56 0.56 0.43 0.42 0.42 0.47 0.37 0.33 0.28 0.28 0.31 0.27 0.11 0.02 0.02 0.01 0.00 0.00 0.00 0.00 0.00 0.00 0.00 0.00 0.00 0.00 0.00 0.00 0.00 0.00 0.00 0.00 0.00 0.00 0.00 0.00 0.00 0.00
0.76 0.78 0.70 0.64 0.56 0.45 0.38 0.38 0.45 0.56 0.67 0.68 0.52 0.46 0.45 0.47 0.55 0.57 0.63 0.80 0.83 0.46 0.08 0.01 0.00 0.00 0.00 0.00 0.00 0.00 0.00 0.00 0.00 0.00 0.00 0.00 0.00 0.00 0.00 0.00 0.00 0.00 0.00 0.00 0.00 0.00 0.00
0.46 0.54 0.61 0.65 0.68 0.73 0.76 0.63 0.47 0.46 0.52 0.68 0.85 0.79 0.61 0.61 0.74 0.94 0.97 0.90 0.53 0.16 0.07 0.01 0.00 0.00 0.00 0.00 0.00 0.00 0.00 0.00 0.00 0.00 0.00 0.00 0.00 0.00 0.00 0.00 0.00 0.00 0.00 0.00 0.00 0.00 0.00
0.33 0.40 0.50 0.57 0.67 0.75 0.81 0.80 0.73 0.59 0.49 0.51 0.62 0.86 1.04 0.96 1.10 1.41 1.37 0.78 0.25 0.17 0.17 0.03 0.00 0.00 0.00 0.00 0.00 0.00 0.00 0.00 0.00 0.00 0.00 0.00 0.00 0.00 0.00 0.00 0.00 0.00 0.00 0.00 0.00 0.00 0.00
0.32 0.38 0.45 0.53 0.70 0.87 0.98 0.99 0.80 0.69 0.64 0.66 0.67 0.76 1.08 1.63 2.34 1.69 1.41 0.55 0.33 0.45 0.73 0.27 0.00 0.00 0.00 0.00 0.00 0.00 0.00 0.00 0.00 0.00 0.00 0.00 0.00 0.00 0.00 0.00 0.00 0.00 0.00 0.00 0.00 0.01 0.00
0.32 0.47 0.52 0.56 0.74 0.91 1.02 1.09 1.10 0.97 0.82 0.78 0.88 1.18 1.51 1.83 1.76 1.34 0.84 0.38 0.63 1.21 2.30 0.59 0.01 0.00 0.00 0.00 0.00 0.00 0.00 0.00 0.00 0.00 0.00 0.00 0.00 0.00 0.00 0.00 0.00 0.00 0.00 0.00 0.00 0.01 0.02
0.33 0.47 0.65 0.75 0.76 0.77 0.86 0.97 1.06 1.10 1.12 1.05 1.03 1.27 1.76 1.96 1.83 0.91 0.39 0.73 1.86 3.55 3.46 0.50 0.00 0.00 0.00 0.00 0.00 0.00 0.00 0.00 0.00 0.00 0.00 0.00 0.00 0.00 0.00 0.00 0.00 0.00 0.00 0.00 0.00 0.01 0.02
0.87 0.59 0.54 0.68 0.85 0.94 0.89 0.86 0.90 1.08 1.15 1.23 1.38 1.48 1.72 1.51 1.83 1.13 1.15 2.18 4.33 4.91 2.00 0.23 0.00 0.00 0.00 0.00 0.00 0.00 0.00 0.00 0.00 0.00 0.00 0.00 0.00 0.00 0.00 0.00 0.00 0.00 0.00 0.01 0.02 0.00 0.01
0.75 0.91 0.82 0.68 0.69 0.83 0.96 1.02 1.00 0.97 1.03 1.22 1.56 1.81 1.97 1.73 1.31 1.44 2.09 3.30 4.82 3.28 0.95 0.04 0.00 0.00 0.00 0.00 0.00 0.00 0.00 0.00 0.00 0.00 0.00 0.00 0.00 0.00 0.00 0.00 0.00 0.00 0.00 0.01 0.02 0.00 0.00
0.54 0.61 0.77 0.79 0.74 0.73 0.72 0.88 1.01 1.09 1.10 1.26 1.77 2.31 2.55 2.53 2.18 2.33 3.28 4.87 4.16 1.64 0.24 0.01 0.01 0.01 0.00 0.00 0.00 0.00 0.00 0.00 0.00 0.00 0.00 0.00 0.00 0.00 0.00 0.00 0.00 0.00 0.00 0.00 0.05 0.07 0.13
0.83 0.62 0.62 0.78 0.76 0.73 0.74 0.69 0.88 1.01 1.23 1.37 1.67 2.19 2.67 2.43 2.43 2.86 3.55 4.19 2.73 0.68 0.04 0.01 0.05 0.03 0.00 0.00 0.00 0.00 0.00 0.00 0.00 0.00 0.00 0.02 0.04 0.00 0.00 0.00 0.00 0.01 0.01 0.06 0.24 0.37 0.22
1.33 0.98 0.76 0.85 1.00 0.69 0.69 0.71 0.74 1.01 1.11 1.17 1.41 2.13 2.43 2.03 2.74 3.75 4.19 3.50 2.06 0.60 0.14 0.10 0.12 0.07 0.02 0.00 0.00 0.00 0.00 0.00 0.00 0.00 0.00 0.02 0.09 0.04 0.00 0.00 0.00 0.03 0.06 0.13 0.23 0.35 0.49
1.40 1.72 1.34 1.07 1.34 1.04 0.70 0.73 0.82 0.92 1.12 1.29 1.49 1.94 2.04 2.02 3.23 3.88 3.44 2.46 1.33 0.54 0.41 0.42 0.28 0.13 0.08 0.05 0.04 0.03 0.01 0.00 0.00 0.00 0.00 0.00 0.05 0.06 0.01 0.00 0.00 0.05 0.16 0.19 0.28 0.25 0.26
1.32 1.63 1.99 1.54 1.56 1.73 1.08 0.84 0.85 0.88 0.91 1.08 1.63 1.63 2.00 1.88 2.36 2.48 2.13 1.89 1.16 0.59 0.52 0.65 0.46 0.18 0.13 0.09 0.17 0.10 0.05 0.02 0.00 0.00 0.00 0.00 0.12 0.25 0.26 0.10 0.02 0.04 0.05 0.11 0.18 0.20 0.17
0.91 1.31 1.49 1.91 1.77 2.27 1.90 1.20 0.94 0.86 0.83 0.94 1.63 2.03 2.68 2.72 1.70 1.19 1.05 1.18 1.09 0.63 0.36 0.47 0.42 0.17 0.17 0.35 0.35 0.20 0.06 0.03 0.00 0.00 0.00 0.00 0.02 0.04 0.09 0.04 0.00 0.00 0.00 0.03 0.09 0.15 0.12
0.30 0.82 1.31 1.45 2.07 2.31 2.66 2.16 1.65 1.39 1.20 1.63 2.02 1.43 1.23 1.63 1.42 1.04 0.62 0.64 0.50 0.62 0.58 0.34 0.47 0.26 0.18 0.50 0.53 0.30 0.11 0.06 0.04 0.01 0.01 0.05 0.08 0.06 0.09 0.04 0.03 0.00 0.00 0.00 0.01 0.01 0.04
0.14 0.32 0.90 1.52 1.97 1.82 2.21 2.50 2.08 1.64 1.60 2.10 1.81 1.03 0.52 0.22 0.29 0.45 0.58 0.71 0.32 0.32 0.46 0.36 0.25 0.23 0.15 0.19 0.19 0.21 0.11 0.06 0.08 0.03 0.04 0.09 0.20 0.13 0.15 0.13 0.12 0.05 0.01 0.01 0.00 0.00 0.00
0.06 0.12 0.55 1.19 1.36 1.34 1.93 2.17 1.97 1.50 1.47 2.05 0.97 0.41 0.38 0.42 0.26 0.30 0.41 0.42 0.29 0.19 0.33 0.18 0.12 0.15 0.22 0.16 0.12 0.15 0.16 0.21 0.13 0.06 0.10 0.16 0.27 0.26 0.29 0.26 0.24 0.28 0.04 0.00 0.00 0.00 0.00
0.05 0.04 0.19 0.68 0.93 1.03 1.50 1.85 1.91 1.49 1.24 1.17 0.63 0.32 0.60 0.85 0.38 0.33 0.20 0.13 0.16 0.12 0.22 0.31 0.22 0.25 0.44 0.32 0.34 0.46 0.55 0.56 0.56 0.51 0.30 0.28 0.31 0.45 0.48 0.33 0.34 0.16 0.01 0.00 0.00 0.00 0.00
0.05 0.03 0.07 0.24 0.55 0.78 1.11 1.32 1.64 1.73 1.29 1.08 0.77 0.40 0.50 0.83 0.53 0.39 0.25 0.28 0.27 0.25 0.28 0.31 0.28 0.25 0.32 0.20 0.42 0.96 1.13 1.02 0.94 0.80 0.66 0.47 0.34 0.45 0.49 0.30 0.08 0.01 0.00 0.01 0.05 0.05 0.03
0.05 0.03 0.07 0.09 0.30 0.52 0.83 0.95 1.14 1.55 1.45 1.13 0.97 0.42 0.36 0.58 0.55 0.28 0.23 0.16 0.29 0.46 0.73 0.58 0.34 0.33 0.27 0.34 0.69 0.88 0.73 0.50 0.42 0.41 0.45 0.48 0.51 0.51 0.61 0.34 0.14 0.01 0.00 0.00 0.02 0.06 0.02
0.05 0.06 0.04 0.04 0.13 0.30 0.59 0.74 0.81 1.15 1.05 1.11 0.99 0.37 0.31 0.61 0.53 0.22 0.32 0.36 0.24 0.22 0.46 0.55 0.63 0.69 0.48 0.50 0.72 0.71 0.51 0.21 0.13 0.09 0.21 0.29 0.36 0.42 0.40 0.24 0.07 0.01 0.00 0.00 0.05 0.09 0.02
0.05 0.02 0.02 0.03 0.05 0.15 0.41 0.56 0.60 0.71 0.77 0.69 1.05 0.40 0.32 0.49 0.61 0.29 0.17 0.17 0.16 0.12 0.25 0.44 0.32 0.46 0.48 0.39 0.43 0.47 0.33 0.20 0.07 0.04 0.02 0.06 0.10 0.18 0.22 0.23 0.07 0.00 0.00 0.01 0.03 0.04 0.02
0.03 0.04 0.02 0.03 0.05 0.11 0.28 0.44 0.48 0.46 0.59 0.34 0.72 0.62 0.42 0.40 0.51 0.23 0.19 0.11 0.06 0.04 0.03 0.07 0.10 0.13 0.14 0.18 0.19 0.19 0.12 0.07 0.03 0.08 0.04 0.02 0.00 0.01 0.02 0.03 0.01 0.00 0.00 0.00 0.01 0.00 0.00